sat.trackr.live / text

‹ back to catalog

HULIANWANG JISHU SHIYAN*

NORAD 57288 · 2023-095A

PAYLOAD ACTIVE UNKNOWN

§ Identity

Operator
Country
PRC
Launch date
2023-07-09
Launch site
JSC
Launch vehicle
Mass (kg)
RCS (m²)

External: N2YO · Heavens-Above · Gunter

§ Orbital elements

Epoch: 2026-09-21T21:53:53.628000Z

Period
107.50 min
Inclination
86.5063°
Eccentricity
0.0015855
Mean motion
13.39547424 rev/d
Perigee alt
1,099.1 km
Apogee alt
1,122.8 km
Semi-major
7,489.1 km
B*
3.4643e-5
RAAN
331.3197°
Arg perigee
281.7225°
Mean anomaly
78.2138°
Rev number
15,670

§ Raw data

HULIANWANG JISHU SHIYAN*1 57288U 23095A   26264.91242625  .00000034  00000+0  34643-4 0  99902 57288  86.5063 331.3197 0015855 281.7225  78.2138 13.39547424156708

JSON: /api/v1/satellites/57288 · /tle

For live sub-satellite position, see the globe view (requires WebGL).

§ Visibility from observer

Set your observer location to see the next 7 days of passes ≥ 10°. The values pass through the URL so the page stays shareable.

No JS? Fill the form by hand. The geolocation button needs JavaScript.